Chambery, France

10:55 AM CEST on August 21, 2017 (GMT +0200)
Aix-les-Bains

Weather History for LFLB - August, 2014

Change the Weather History Date:

Monday, August 11, 2014

  Actual Average Record
Temperature  
Mean Temperature 68 °F -  
Max Temperature 73 °F 74 °F 102 °F (2003)
Min Temperature 62 °F 55 °F 48 °F (2011)
Cooling Degree Days 2    
Growing Degree Days 18 (Base 50)    
Moisture  
Dew Point 63 °F    
Average Humidity 81    
Maximum Humidity 100    
Minimum Humidity 58    
Precipitation  
Precipitation 0.16 in - - ()
Sea Level Pressure  
Sea Level Pressure 30.01 in    
Wind  
Wind Speed 5 mph ()    
Max Wind Speed 10 mph    
Max Gust Speed -    
Visibility 6.5 miles    
Events Rain    
Averages and records for this station are not official NWS values.
T = Trace of Precipitation, MM = Missing Value Source: Averaged Metar Reports

Daily Weather History Graph

Daily Weather History Graph

Search for Another Location

Airport or City:

Trip Planner

Search our weather history database for the weather conditions in past years. The results will help you decide how hot, cold, wet, or windy it might be!

Date:

Astronomy

Aug. 11, 2014 Rise Set
Actual Time 6:31 AM CEST 8:50 PM CEST
Civil Twilight 5:58 AM CEST 9:23 PM CEST
Nautical Twilight 5:17 AM CEST 10:04 PM CEST
Astronomical Twilight 4:31 AM CEST 10:50 PM CEST
Moon 9:01 PM CEST (8/11) 7:22 AM CEST (8/11)
Length of Visible Light 15h 25m
Length of Day
14h 19m
Full, 99% of the Moon is Illuminated
Aug 11
Full
Aug 17
Last Quarter
Aug 25
New
Sep 2
First Quarter
Sep 9
Full

Hourly Weather History & Observations

Time (CEST) Temp. Dew Point Humidity Pressure Visibility Wind Dir Wind Speed Gust Speed Precip Events Conditions
12:00 AM 77 °F 65 °F 58% 29.90 in 28 mi SSE 10.4 mph - -   Clear
12:00 AM 77.0 °F 64.4 °F 65% 29.92 in 6.2 mi SSE 10.4 mph - N/A   Unknown
12:30 AM 77.0 °F 64.4 °F 65% 29.95 in 6.2 mi South 6.9 mph - N/A   Unknown
1:00 AM 76 °F 64 °F 59% 29.91 in 28 mi SSW 6.9 mph - -   Clear
1:00 AM 77.0 °F 64.4 °F 65% 29.95 in 6.2 mi SSW 6.9 mph - N/A   Overcast
1:30 AM 75.2 °F 64.4 °F 69% 29.95 in 6.2 mi South 6.9 mph - N/A   Overcast
2:00 AM 72 °F 66 °F 77% 29.93 in 1 mi South 10.4 mph - - Rain Heavy Rain
2:00 AM 71.6 °F 66.2 °F 83% 29.95 in 1.4 mi South 10.4 mph - N/A Rain Heavy Rain
2:30 AM 71.6 °F 68.0 °F 88% 29.95 in 3.7 mi SE 6.9 mph - N/A Rain Light Rain
3:00 AM 70 °F 67 °F 86% 29.93 in 12 mi WNW 3.5 mph - -   Clear
3:00 AM 69.8 °F 66.2 °F 88% 29.95 in 6.2 mi Variable 3.5 mph - N/A   Overcast
3:30 AM 69.8 °F 68.0 °F 94% 29.95 in 6.2 mi Variable 2.3 mph - N/A   Mostly Cloudy
4:00 AM 69 °F 67 °F 92% 29.93 in 7 mi NW 1.2 mph - -   Clear
4:00 AM 69.8 °F 68.0 °F 94% 29.95 in 6.2 mi Variable 1.2 mph - N/A   Mostly Cloudy
4:30 AM 69.8 °F 68.0 °F 94% 29.95 in 6.2 mi Variable 2.3 mph - N/A   Overcast
5:00 AM 69.8 °F 68.0 °F 94% 29.95 in 6.2 mi ESE 9.2 mph - N/A Rain Light Rain
5:30 AM 69.8 °F 68.0 °F 94% 29.95 in 6.2 mi Variable 3.5 mph - N/A   Overcast
6:00 AM 69 °F 67 °F 92% 29.94 in 7 mi North 1.2 mph - -   Partly Cloudy
6:00 AM 68.0 °F 68.0 °F 100% 29.95 in 6.2 mi Variable 2.3 mph - N/A   Mostly Cloudy
6:30 AM 68.0 °F 68.0 °F 100% 29.95 in 6.2 mi Variable 1.2 mph - N/A   Mostly Cloudy
7:00 AM 68 °F 67 °F 94% 29.94 in 9 mi Calm Calm - -   Mostly Cloudy
7:00 AM 68.0 °F 66.2 °F 94% 29.95 in 6.2 mi Calm Calm - N/A   Mostly Cloudy
7:30 AM 69.8 °F 68.0 °F 94% 29.95 in 6.2 mi Variable 1.2 mph - N/A   Mostly Cloudy
8:00 AM 69 °F 67 °F 92% 29.94 in 9 mi Calm Calm - -   Partly Cloudy
8:00 AM 68.0 °F 68.0 °F 100% 29.95 in 6.2 mi Variable 1.2 mph - N/A   Mostly Cloudy
9:00 AM 70 °F 68 °F 91% 29.96 in 9 mi Calm Calm - -   Mostly Cloudy
9:00 AM 69.8 °F 68.0 °F 94% 29.98 in 6.2 mi Calm Calm - N/A   Mostly Cloudy
9:40 AM 71.6 °F 68.0 °F 88% 29.98 in 6.2 mi NNE 1.2 mph - N/A   Mostly Cloudy
10:00 AM 72 °F 66 °F 77% 29.96 in 9 mi SE 3.5 mph - -   Mostly Cloudy
10:00 AM 71.6 °F 66.2 °F 83% 29.98 in 6.2 mi Variable 3.5 mph - N/A   Mostly Cloudy
10:30 AM 73.4 °F 66.2 °F 78% 29.98 in 6.2 mi East 3.5 mph - N/A   Mostly Cloudy
11:00 AM 72 °F 65 °F 72% 29.98 in 9 mi ENE 4.6 mph - -   Overcast
11:00 AM 71.6 °F 66.2 °F 83% 30.01 in 6.2 mi NNE 3.5 mph - N/A   Mostly Cloudy
11:30 AM 69.8 °F 64.4 °F 83% 30.01 in 6.2 mi ENE 4.6 mph - N/A   Mostly Cloudy
12:00 PM 67 °F 62 °F 79% 30.01 in 6 mi NE 9.2 mph - - Rain Light Rain
12:00 PM 68.0 °F 62.6 °F 83% 30.01 in 5.6 mi NE 9.2 mph - N/A Rain Light Rain
1:00 PM 64 °F 60 °F 83% 30.06 in 6 mi SSE 5.8 mph - - Rain Light Rain
1:00 PM 64.4 °F 60.8 °F 88% 30.06 in 6.2 mi SSE 5.8 mph - N/A   Mostly Cloudy
1:30 PM 62.6 °F 59.0 °F 88% 30.09 in 6.2 mi NNE 10.4 mph - N/A   Mostly Cloudy
2:00 PM 64 °F 60 °F 84% 30.09 in 6 mi ENE 4.6 mph - -   Partly Cloudy
2:00 PM 64.4 °F 60.8 °F 88% 30.09 in 6.2 mi NE 5.8 mph - N/A   Mostly Cloudy
2:30 PM 64.4 °F 60.8 °F 88% 30.09 in 6.2 mi NE 8.1 mph - N/A   Mostly Cloudy
3:00 PM 65 °F 59 °F 75% 30.08 in 7 mi NNE 8.1 mph - -   Overcast
3:00 PM 64.4 °F 59.0 °F 83% 30.09 in 6.2 mi NNE 6.9 mph - N/A   Mostly Cloudy
3:30 PM 66.2 °F 60.8 °F 83% 30.09 in 6.2 mi Variable 2.3 mph - N/A   Mostly Cloudy
4:00 PM 66 °F 58 °F 69% 30.08 in 9 mi North 9.2 mph - -   Mostly Cloudy
4:00 PM 66.2 °F 59.0 °F 78% 30.09 in 6.2 mi North 9.2 mph - N/A   Mostly Cloudy
5:00 PM 69 °F 59 °F 63% 30.06 in 9 mi NE 5.8 mph - -   Mostly Cloudy
5:00 PM 68.0 °F 59.0 °F 73% 30.06 in 6.2 mi NNE 5.8 mph - N/A   Mostly Cloudy
5:30 PM 69.8 °F 59.0 °F 68% 30.06 in 6.2 mi NNW 4.6 mph - N/A   Mostly Cloudy
6:00 PM 68 °F 58 °F 63% 30.06 in 12 mi NNW 3.5 mph - -   Partly Cloudy
6:00 PM 68.0 °F 57.2 °F 68% 30.06 in 6.2 mi Variable 3.5 mph - N/A   Mostly Cloudy
6:30 PM 68.0 °F 57.2 °F 68% 30.06 in 6.2 mi Variable 2.3 mph - N/A   Mostly Cloudy
7:00 PM 68 °F 57 °F 60% 30.05 in 37 mi NNW 3.5 mph - -   Clear
7:30 PM 68.0 °F 57.2 °F 68% 30.06 in 6.2 mi North 5.8 mph - N/A   Unknown
8:00 PM 66 °F 57 °F 65% 30.06 in 37 mi North 6.9 mph - -   Clear
8:00 PM 66.2 °F 57.2 °F 73% 30.06 in 6.2 mi North 6.9 mph - N/A   Scattered Clouds
8:30 PM 64.4 °F 57.2 °F 77% 30.06 in 6.2 mi North 5.8 mph - N/A   Partly Cloudy
9:00 PM 64 °F 57 °F 73% 30.07 in 37 mi NNW 3.5 mph - -   Clear
9:00 PM 64.4 °F 57.2 °F 77% 30.06 in 6.2 mi NNW 3.5 mph - N/A   Partly Cloudy
9:30 PM 62.6 °F 57.2 °F 82% 30.06 in 6.2 mi West 4.6 mph - N/A   Scattered Clouds
10:00 PM 62 °F 58 °F 81% 30.08 in 37 mi SE 3.5 mph - -   Clear
10:00 PM 62.6 °F 57.2 °F 82% 30.09 in 6.2 mi Variable 3.5 mph - N/A   Mostly Cloudy
10:30 PM 62.6 °F 57.2 °F 82% 30.09 in 6.2 mi SSW 2.3 mph - N/A   Overcast
11:00 PM 62 °F 59 °F 87% 30.08 in 34 mi Calm Calm - -   Clear
11:00 PM 62.6 °F 59.0 °F 88% 30.09 in 6.2 mi Calm Calm - N/A   Overcast
11:30 PM 62.6 °F 59.0 °F 88% 30.06 in 6.2 mi SW 2.3 mph - N/A   Overcast